Simultaneous Nadir Overpasses (SNOs) Predictions

Prediction of SNOs between GOES-15 and NPP Satellite Orbit:

Table of predicted SNOs for the next 14.0 days since TLE Epoch: 10/15/2022
Index Date Time (GOES-15) GOES-15 Lat,Lon NPP Lat,Lon Distance(km) Time Diff (sec)
1 10/15/2022 22:15:46 -0.21,-128.33 -1.19,-132.68 495.62 80
2 10/16/2022 21:59:42 -0.22,-128.34 -0.15,-128.15 22.25 80
3 10/19/2022 10:00:05 0.20,-128.43 0.31,-128.89 52.55 80
4 10/20/2022 09:44:00 0.21,-128.43 -0.73,-124.36 464.64 80
5 10/21/2022 22:03:16 -0.19,-128.36 -0.49,-129.65 147.07 80
6 10/22/2022 21:47:11 -0.20,-128.37 0.55,-125.12 370.38 80
7 10/24/2022 10:06:19 0.17,-128.45 0.63,-130.39 221.86 80
8 10/25/2022 09:50:14 0.19,-128.44 -0.42,-125.86 294.96 80
9 10/26/2022 22:09:29 -0.16,-128.36 -0.79,-131.16 318.43 80
10 10/27/2022 21:53:24 -0.18,-128.36 0.20,-126.62 198.10 80
